Tracking 23762 objects as of 20-Oct-2021
HD Live streaming from Space Station
objects crossing your sky now

SL-8 R/B

Track SL-8 R/B now!
10-day predictions


NORAD ID: 8073
Int'l Code: 1975-074B
Perigee: 968.9 km
Apogee: 1,001.5 km
Inclination: 82.9 °
Period: 104.6 minutes
Semi major axis: 7356 km
RCS: 4.716 m2 (large)
Launch date: August 14, 1975
Source: Commonwealth of Independent States (former USSR) (CIS)
Launch site: PLESETSK MISSILE AND SPACE COMPLEX (PKMTR)

Note: This is a ROCKET BODY
aabbcc
Your satellite tracking list
Your tracking list is empty




NASA's NSSDC Master Catalog

Two Line Element Set (TLE):
1 08073U 75074B   21292.89414324  .00000003  00000-0 -12627-4 0  9998
2 08073  82.9027 223.6493 0022129  19.9611  41.7247 13.76016629318031
Source of the keplerian elements: AFSPC